Time,TemperatureF,DewpointF,PressureIn,WindDirection,WindDirectionDegrees,WindSpeedMPH,WindSpeedGustMPH,Humidity,HourlyPrecipIn,Conditions,Clouds,dailyrainin,SolarRadiationWatts/m^2,SoftwareType,DateUTC
2013-03-12 06:59:00,0.0,0.0,29.97,West,270,4.0,4.0,0,-99.99,,---,-99.99,0.00,VWS V14.01,2013-03-12 11:59:00,
2013-03-12 07:00:00,25.5,6.7,29.97,WNW,292,3.4,4.0,44,-99.99,,---,-99.99,0.00,VWS V14.01,2013-03-12 12:00:00,
2013-03-12 07:01:00,25.5,6.7,29.97,WNW,292,3.6,4.0,44,-99.99,,---,-99.99,0.00,VWS V14.01,2013-03-12 12:01:00,
2013-03-12 07:06:00,25.5,6.7,29.97,WNW,292,3.4,4.0,44,-99.99,,---,-99.99,0.00,VWS V14.01,2013-03-12 12:06:00,
2013-03-12 07:09:00,25.3,6.5,29.97,West,270,2.7,3.1,44,-99.99,,---,-99.99,0.00,VWS V14.01,2013-03-12 12:09:00,
2013-03-12 07:15:00,25.2,6.8,29.97,West,270,2.5,2.9,45,-99.99,,---,-99.99,0.00,VWS V14.01,2013-03-12 12:15:00,
2013-03-12 07:21:00,25.2,6.8,29.97,WNW,292,3.8,3.8,45,-99.99,,---,-99.99,0.00,VWS V14.01,2013-03-12 12:21:00,
2013-03-12 07:26:00,25.2,6.8,29.97,WNW,292,4.3,4.3,45,-99.99,,---,-99.99,0.00,VWS V14.01,2013-03-12 12:26:00,
2013-03-12 07:33:00,25.2,6.8,29.97,WNW,292,3.6,3.6,45,-99.99,,---,-99.99,0.00,VWS V14.01,2013-03-12 12:33:00,
2013-03-12 07:38:00,25.2,6.8,29.97,West,270,3.6,3.6,45,-99.99,,---,-99.99,0.00,VWS V14.01,2013-03-12 12:38:00,
2013-03-12 07:45:00,24.6,7.3,29.97,WNW,292,4.9,4.9,47,-99.99,,---,-99.99,0.00,VWS V14.01,2013-03-12 12:45:00,
2013-03-12 07:50:00,25.2,8.7,29.97,WNW,292,5.6,6.7,49,-99.99,,---,-99.99,0.00,VWS V14.01,2013-03-12 12:50:00,
2013-03-12 07:55:00,25.2,8.7,29.97,WNW,292,5.6,5.6,49,-99.99,,---,-99.99,0.00,VWS V14.01,2013-03-12 12:55:00,
2013-03-12 08:01:00,25.2,8.7,29.97,West,270,3.8,4.3,49,-99.99,,---,-99.99,0.00,VWS V14.01,2013-03-12 13:01:00,
2013-03-12 08:08:00,25.5,9.0,30.00,West,270,5.8,5.8,49,-99.99,,---,-99.99,0.00,VWS V14.01,2013-03-12 13:08:00,
2013-03-12 11:51:00,37.4,3.9,0.00,NW,315,9.2,9.2,24,-99.99,,---,-99.99,0.00,VWS V14.01,2013-03-12 16:51:00,
2013-03-12 11:57:00,38.1,4.5,30.09,NNW,338,14.5,14.8,24,-99.99,,---,-99.99,0.00,VWS V14.01,2013-03-12 16:57:00,
2013-03-12 12:02:00,38.1,4.5,30.09,NNW,338,14.8,15.9,24,-99.99,,---,-99.99,0.00,VWS V14.01,2013-03-12 17:02:00,
2013-03-12 12:07:00,38.1,4.5,30.09,NW,315,9.6,9.6,24,-99.99,,---,-99.99,0.00,VWS V14.01,2013-03-12 17:07:00,
2013-03-12 12:12:00,38.1,4.5,30.09,NNW,338,15.2,15.2,24,-99.99,,---,-99.99,0.00,VWS V14.01,2013-03-12 17:12:00,
2013-03-12 12:18:00,37.0,3.6,30.09,NNE,22,13.0,15.4,24,-99.99,,---,-99.99,0.00,VWS V14.01,2013-03-12 17:18:00,
2013-03-12 12:24:00,36.9,3.5,30.09,NNE,22,9.8,11.4,24,-99.99,,---,-99.99,0.00,VWS V14.01,2013-03-12 17:24:00,
2013-03-12 12:29:00,37.0,3.6,30.09,NNW,338,10.5,10.5,24,-99.99,,---,-99.99,0.00,VWS V14.01,2013-03-12 17:29:00,
2013-03-12 12:35:00,37.0,3.6,30.06,NNW,338,8.5,17.5,24,-99.99,,---,-99.99,0.00,VWS V14.01,2013-03-12 17:35:00,
2013-03-12 12:40:00,37.4,3.9,30.06,NNW,338,11.0,12.3,24,-99.99,,---,-99.99,0.00,VWS V14.01,2013-03-12 17:40:00,
2013-03-12 12:46:00,37.0,3.6,30.06,NNW,338,17.2,17.2,24,-99.99,,---,-99.99,0.00,VWS V14.01,2013-03-12 17:46:00,
2013-03-12 12:52:00,37.0,3.6,30.06,NW,315,19.2,19.2,24,-99.99,,---,-99.99,0.00,VWS V14.01,2013-03-12 17:52:00,
2013-03-12 12:58:00,37.8,4.2,30.06,NNW,338,8.5,11.0,24,-99.99,,---,-99.99,0.00,VWS V14.01,2013-03-12 17:58:00,
2013-03-12 13:03:00,37.8,4.2,30.06,NNW,338,14.8,14.8,24,-99.99,,---,-99.99,0.00,VWS V14.01,2013-03-12 18:03:00,
2013-03-12 13:09:00,38.1,4.5,30.09,NNW,338,13.0,13.0,24,-99.99,,---,-99.99,0.00,VWS V14.01,2013-03-12 18:09:00,
2013-03-12 13:15:00,39.2,4.5,30.09,NNW,338,13.2,14.8,23,-99.99,,---,-99.99,0.00,VWS V14.01,2013-03-12 18:15:00,
2013-03-12 13:21:00,38.8,2.3,30.09,NW,315,17.5,17.5,21,-99.99,,---,-99.99,0.00,VWS V14.01,2013-03-12 18:21:00,
2013-03-12 13:27:00,38.8,2.3,30.09,NNW,338,19.5,19.5,21,-99.99,,---,-99.99,0.00,VWS V14.01,2013-03-12 18:27:00,
2013-03-12 13:32:00,38.7,5.0,30.09,NNW,338,7.8,17.7,24,-99.99,,---,-99.99,0.00,VWS V14.01,2013-03-12 18:32:00,
2013-03-12 13:38:00,39.0,2.4,30.09,WNW,292,11.9,13.4,21,-99.99,,---,-99.99,0.00,VWS V14.01,2013-03-12 18:38:00,
2013-03-12 13:44:00,38.8,2.3,30.09,NW,315,14.8,16.3,21,-99.99,,---,-99.99,0.00,VWS V14.01,2013-03-12 18:44:00,
2013-03-12 13:49:00,38.5,2.0,30.09,North,0,13.0,13.0,21,-99.99,,---,-99.99,0.00,VWS V14.01,2013-03-12 18:49:00,
2013-03-12 13:54:00,38.7,5.0,30.09,NW,315,11.4,12.3,24,-99.99,,---,-99.99,0.00,VWS V14.01,2013-03-12 18:54:00,
2013-03-12 14:01:00,39.4,4.7,30.09,WNW,292,8.5,10.5,23,-99.99,,---,-99.99,0.00,VWS V14.01,2013-03-12 19:01:00,
2013-03-12 14:07:00,39.4,2.7,30.09,WNW,292,14.3,17.0,21,-99.99,,---,-99.99,0.00,VWS V14.01,2013-03-12 19:07:00,
2013-03-12 14:13:00,38.8,2.3,30.09,WNW,292,13.0,13.0,21,-99.99,,---,-99.99,0.00,VWS V14.01,2013-03-12 19:13:00,
2013-03-12 14:18:00,38.8,2.3,30.09,NNW,338,8.7,15.7,21,-99.99,,---,-99.99,0.00,VWS V14.01,2013-03-12 19:18:00,
2013-03-12 14:24:00,39.0,2.4,30.09,NW,315,12.8,12.8,21,-99.99,,---,-99.99,0.00,VWS V14.01,2013-03-12 19:24:00,
2013-03-12 14:29:00,39.0,2.4,30.09,NNW,338,13.9,13.9,21,-99.99,,---,-99.99,0.00,VWS V14.01,2013-03-12 19:29:00,
2013-03-12 14:34:00,39.0,2.4,30.09,NNW,338,15.2,15.2,21,-99.99,,---,-99.99,0.00,VWS V14.01,2013-03-12 19:34:00,
2013-03-12 14:39:00,38.8,2.3,30.09,WNW,292,16.3,17.5,21,-99.99,,---,-99.99,0.00,VWS V14.01,2013-03-12 19:39:00,
2013-03-12 14:45:00,38.5,2.0,30.09,WNW,292,13.2,13.2,21,-99.99,,---,-99.99,0.00,VWS V14.01,2013-03-12 19:45:00,
2013-03-12 14:50:00,38.1,1.6,30.09,NNW,338,17.9,17.9,21,-99.99,,---,-99.99,0.00,VWS V14.01,2013-03-12 19:50:00,
2013-03-12 17:07:00,36.0,0.8,0.00,NNW,338,15.4,15.4,22,-99.99,,---,-99.99,0.00,VWS V14.01,2013-03-12 22:07:00,
2013-03-12 17:12:00,35.8,2.5,0.00,WNW,292,13.6,13.6,24,-99.99,,---,-99.99,0.00,VWS V14.01,2013-03-12 22:12:00,
2013-03-12 17:17:00,35.8,2.5,0.00,NW,315,13.6,13.6,24,-99.99,,---,-99.99,0.00,VWS V14.01,2013-03-12 22:17:00,
2013-03-12 17:23:00,35.8,2.5,0.00,NW,315,13.6,13.6,24,-99.99,,---,-99.99,0.00,VWS V14.01,2013-03-12 22:23:00,
2013-03-12 17:28:00,35.6,2.4,0.00,North,0,12.3,20.4,24,-99.99,,---,-99.99,0.00,VWS V14.01,2013-03-12 22:28:00,
2013-03-12 17:34:00,35.6,2.4,0.00,NNW,338,14.8,14.8,24,-99.99,,---,-99.99,0.00,VWS V14.01,2013-03-12 22:34:00,
2013-03-12 17:39:00,35.4,3.1,30.12,WNW,292,19.9,19.9,25,-99.99,,---,-99.99,0.00,VWS V14.01,2013-03-12 22:39:00,
2013-03-12 17:45:00,35.2,3.0,30.12,NW,315,11.9,13.0,25,-99.99,,---,-99.99,0.00,VWS V14.01,2013-03-12 22:45:00,
2013-03-12 17:50:00,35.2,3.0,30.12,NNW,338,15.7,15.7,25,-99.99,,---,-99.99,0.00,VWS V14.01,2013-03-12 22:50:00,
2013-03-12 17:56:00,35.1,2.8,30.12,NNW,338,10.7,10.7,25,-99.99,,---,-99.99,0.00,VWS V14.01,2013-03-12 22:56:00,
2013-03-12 18:02:00,35.1,2.8,30.12,NNW,338,11.0,11.0,25,-99.99,,---,-99.99,0.00,VWS V14.01,2013-03-12 23:02:00,
2013-03-12 18:07:00,35.2,3.0,30.12,NNW,338,12.5,12.5,25,-99.99,,---,-99.99,0.00,VWS V14.01,2013-03-12 23:07:00,
2013-03-12 18:13:00,34.9,2.6,30.12,NNW,338,15.7,15.7,25,-99.99,,---,-99.99,0.00,VWS V14.01,2013-03-12 23:13:00,
2013-03-12 18:18:00,34.5,2.3,30.12,NNW,338,9.2,15.2,25,-99.99,,---,-99.99,0.00,VWS V14.01,2013-03-12 23:18:00,
2013-03-12 18:24:00,34.3,2.2,30.15,NNW,338,12.3,18.8,25,-99.99,,---,-99.99,0.00,VWS V14.01,2013-03-12 23:24:00,
2013-03-12 18:30:00,34.3,2.2,30.15,NNW,338,14.1,16.1,25,-99.99,,---,-99.99,0.00,VWS V14.01,2013-03-12 23:30:00,
2013-03-12 18:35:00,34.0,1.9,30.15,WNW,292,20.8,20.8,25,-99.99,,---,-99.99,0.00,VWS V14.01,2013-03-12 23:35:00,
2013-03-12 18:41:00,33.8,1.7,30.15,WNW,292,15.4,17.2,25,-99.99,,---,-99.99,0.00,VWS V14.01,2013-03-12 23:41:00,
2013-03-12 18:47:00,33.8,1.7,30.15,NNW,338,10.3,10.3,25,-99.99,,---,-99.99,0.00,VWS V14.01,2013-03-12 23:47:00,
2013-03-12 18:53:00,33.8,1.7,30.15,NNW,338,11.0,13.6,25,-99.99,,---,-99.99,0.00,VWS V14.01,2013-03-12 23:53:00,
2013-03-12 18:59:00,33.6,1.6,30.15,NNW,338,12.1,12.1,25,-99.99,,---,-99.99,0.00,VWS V14.01,2013-03-12 23:59:00,